Location: Unspecified
(0.0000°N, 0.0000°E)
Time: 00:12:57
(UTC+00:00)

S-56A Canister/Altair - Pass Details

Date: 24 May 2026
Orbit: 632 x 2484 km, 38.9° (Epoch: 9 June)

Event Time Altitude Azimuth Distance (km) Brightness Sun altitude
Exits shadow 03:54:25 22° 188° (S) 3,118 10.3 -28.4°
Drops below altitude 10° 04:00:12 10° 161° (SSE) 4,366 11.3 -27.1°
Sets 04:05:19 0° 149° (SSE) 5,672 12.1 -25.9°
